Weather History for PANT - November, 2012

Change the Weather History Date:

Thursday, November 29, 2012

  Actual Average Record
Temperature  
Mean Temperature 45 °F 38 °F  
Max Temperature 48 °F 43 °F 61 °F (2002)
Min Temperature 41 °F 34 °F 11 °F (1985)
Degree Days  
Heating Degree Days 20 27  
Month to date heating degree days 678 723  
Since 1 July heating degree days 2106 2023  
Cooling Degree Days 0    
Month to date cooling degree days 0  
Year to date cooling degree days 7  
Moisture  
Dew Point 37 °F    
Average Humidity 0    
Maximum Humidity 0    
Minimum Humidity 0    
Precipitation  
Precipitation 0.09 in 0.38 in 2.89 in (1969)
Month to date precipitation 12.21 11.92  
Year to date precipitation 94.83 90.54  
Snow  
Snow 0.00 in 0.10 in 4.60 in (2006)
Month to date snowfall 0.0 3.3  
Since 1 July snowfall T 3.4  
Since 1 September snowfall 0.0 3.4  
Snow Depth 0.00 in    
Sea Level Pressure  
Sea Level Pressure 29.25 in    
Wind  
Wind Speed 8 mph (ENE)    
Max Wind Speed 14 mph    
Max Gust Speed 24 mph    
Visibility 10 miles    
Events Rain    
T = Trace of Precipitation, MM = Missing Value Source: NWS Daily Summary

Daily Weather History Graph

Daily Weather History Graph

Search for Another Location

Airport or City:

Trip Planner

Search our weather history database for the weather conditions in past years. The results will help you decide how hot, cold, wet, or windy it might be!

Date:

Astronomy

Nov. 29, 2012 Rise Set
Actual Time 7:45 AM AKST 3:23 PM AKST
Civil Twilight 7:01 AM AKST 4:07 PM AKST
Nautical Twilight 6:15 AM AKST 4:53 PM AKST
Astronomical Twilight 5:31 AM AKST 5:37 PM AKST
Moon 4:31 PM AKST (11/29) 8:39 AM AKST (11/29)
Length of Visible Light 9h 05m
Length of Day
7h 38m
Full, 99% of the Moon is Illuminated
Nov 29
Full
Dec 6
Last Quarter
Dec 12
New
Dec 19
First Quarter
Dec 28
Full

Hourly Weather History & Observations

Time (AKST) Temp. Windchill Dew Point Humidity Pressure Visibility Wind Dir Wind Speed Gust Speed Precip Events Conditions
12:53 AM 42.1 °F 37.1 °F 37.9 °F 85% 29.31 in 10.0 mi ENE 8.1 mph 19.6 mph 0.04 in Rain Light Rain
1:53 AM 42.1 °F 35.7 °F 37.0 °F 82% 29.30 in 10.0 mi ENE 11.5 mph 19.6 mph 0.02 in Rain Light Rain
3:53 AM 42.1 °F 36.6 °F 37.9 °F 85% 29.26 in 10.0 mi NE 9.2 mph 19.6 mph 0.00 in Rain Light Rain
4:53 AM 43.0 °F 38.2 °F 37.9 °F 82% 29.23 in 10.0 mi NE 8.1 mph 19.6 mph 0.01 in   Overcast
5:53 AM 43.0 °F 41.3 °F 37.9 °F 82% 29.22 in 10.0 mi Variable 3.5 mph - 0.00 in   Overcast
6:53 AM 44.1 °F 38.6 °F 37.0 °F 76% 29.20 in 10.0 mi ENE 10.4 mph 18.4 mph N/A   Overcast
7:53 AM 45.0 °F 41.8 °F 37.0 °F 74% 29.22 in 10.0 mi Variable 5.8 mph - N/A   Overcast
8:53 AM 45.0 °F 42.6 °F 37.0 °F 74% 29.23 in 10.0 mi Variable 4.6 mph - N/A   Overcast
9:53 AM 46.0 °F 43.9 °F 37.0 °F 71% 29.23 in 10.0 mi ENE 4.6 mph - N/A   Overcast
10:20 AM 46.4 °F 42.9 °F 37.4 °F 71% 29.23 in 10.0 mi East 6.9 mph - N/A   Overcast
10:38 AM 48.2 °F - 37.4 °F 66% 29.23 in 10.0 mi East 9.2 mph 17.3 mph N/A   Overcast
10:53 AM 46.9 °F - 37.0 °F 68% 29.24 in 10.0 mi ESE 12.7 mph 20.7 mph N/A   Overcast
11:53 AM 46.0 °F 43.1 °F 37.0 °F 71% 29.24 in 10.0 mi ESE 5.8 mph - N/A   Overcast
12:46 PM 46.4 °F 42.4 °F 37.4 °F 71% 29.25 in 10.0 mi ESE 8.1 mph - N/A   Overcast
12:53 PM 46.9 °F - 36.0 °F 66% 29.26 in 10.0 mi East 9.2 mph 16.1 mph N/A   Overcast
1:24 PM 44.6 °F 40.7 °F 37.4 °F 76% 29.25 in 10.0 mi Variable 6.9 mph - 0.00 in   Overcast
1:35 PM 44.6 °F 41.4 °F 37.4 °F 76% 29.25 in 10.0 mi Variable 5.8 mph - 0.00 in   Overcast
1:53 PM 46.0 °F 42.5 °F 37.0 °F 71% 29.26 in 10.0 mi Variable 6.9 mph - 0.00 in   Overcast
2:53 PM 44.1 °F 41.5 °F 36.0 °F 73% 29.26 in 10.0 mi Variable 4.6 mph 16.1 mph N/A   Overcast
3:53 PM 43.0 °F 39.5 °F 36.0 °F 76% 29.25 in 10.0 mi NE 5.8 mph - N/A   Mostly Cloudy
4:53 PM 44.1 °F 40.1 °F 35.1 °F 71% 29.24 in 10.0 mi Variable 6.9 mph - N/A   Overcast
5:53 PM 42.1 °F 38.4 °F 36.0 °F 79% 29.25 in 8.0 mi Variable 5.8 mph - 0.01 in Rain Light Rain
6:53 PM 43.0 °F 38.2 °F 36.0 °F 76% 29.24 in 10.0 mi ENE 8.1 mph - 0.01 in   Overcast
7:53 PM 43.0 °F 37.7 °F 36.0 °F 76% 29.25 in 10.0 mi ENE 9.2 mph 19.6 mph 0.00 in   Overcast
8:53 PM 44.1 °F 40.8 °F 37.0 °F 76% 29.25 in 10.0 mi ESE 5.8 mph - N/A   Overcast
9:53 PM 46.0 °F 43.1 °F 37.0 °F 71% 29.25 in 10.0 mi Variable 5.8 mph 19.6 mph N/A   Overcast
10:53 PM 42.1 °F 37.1 °F 37.0 °F 82% 29.25 in 10.0 mi ENE 8.1 mph - 0.01 in Rain Light Rain
11:53 PM 42.1 °F 36.6 °F 37.0 °F 82% 29.24 in 10.0 mi ENE 9.2 mph 18.4 mph 0.02 in   Overcast